Terminal Aerodrome Forecast
Issued by NWS Austin/San Antonio, TX

Home | Current Version | Previous Version | Text Only | Print | Product List | Glossary On
Versions: 1 2 3 4 5 6 7 8 9 10 11 12 13 14 15 16 17 18 19
000
FTUS44 KEWX 311120
TAFSAT
TAF
KSAT 311120Z 3112/0118 26005KT P6SM BKN250
     FM311900 05010KT P6SM VCTS SCT070CB SCT250
     FM010000 05005KT P6SM BKN250=

USA.gov is the U.S. government's official web portal to all federal, state and local government web resources and services.